Weather History for Pinedale, WY

Change the Weather History Date:

Wednesday, April 2, 2014

  Actual Average (KBPI) Record (KBPI)
Temperature  
Mean Temperature 24 °F 34 °F  
Max Temperature 33 °F 48 °F 60 °F (2013)
Min Temperature 15 °F 19 °F 0 °F (1980)
Degree Days  
Heating Degree Days 41 31  
Month to date heating degree days 63  
Since 1 July heating degree days 8758  
Cooling Degree Days 0 0  
Month to date cooling degree days 0  
Year to date cooling degree days 0  
Moisture  
Dew Point 18 °F    
Average Humidity 77    
Maximum Humidity 100    
Minimum Humidity 48    
Precipitation  
Precipitation 0.00 in 0.01 in 0.14 in (2001)
Month to date precipitation 0.03  
Year to date precipitation 1.13  
Sea Level Pressure  
Sea Level Pressure 29.75 in    
Wind  
Wind Speed 6 mph (NW)    
Max Wind Speed 15 mph    
Max Gust Speed 17 mph    
Visibility 10 miles    
Events Fog    
T = Trace of Precipitation, MM = Missing Value Source: NWS Daily Summary

Daily Weather History Graph

Daily Weather History Graph

Search for Another Location

Airport:

Trip Planner

Search our weather history database for the weather conditions in past years. The results will help you decide how hot, cold, wet, or windy it might be!

Date:

Astronomy

Apr. 02, 2014 Rise Set
Actual Time 6:59 AM MDT 7:46 PM MDT
Civil Twilight 6:30 AM MDT 8:15 PM MDT
Nautical Twilight 5:57 AM MDT 8:49 PM MDT
Astronomical Twilight 5:21 AM MDT 9:24 PM MDT
Moon 8:42 AM MDT (4/2) 11:17 PM MDT (4/2)
Length of Visible Light 13h 44m
Length of Day
12h 47m
Waxing Crescent, 10% of the Moon is Illuminated
Apr 2
Waxing Crescent
Apr 7
First Quarter
Apr 15
Full
Apr 22
Last Quarter
Apr 29
New

Hourly Weather History & Observations

Time (MDT) Temp. Windchill Dew Point Humidity Pressure Visibility Wind Dir Wind Speed Gust Speed Precip Events Conditions
12:17 AM 26.6 °F - 26.6 °F 100% 29.71 in 10.0 mi Calm Calm - N/A   Mostly Cloudy
12:35 AM 26.6 °F - 26.6 °F 100% 29.71 in 10.0 mi Calm Calm - N/A   Overcast
12:55 AM 26.6 °F - 26.6 °F 100% 29.69 in 10.0 mi Calm Calm - N/A   Mostly Cloudy
1:15 AM 26.6 °F 21.2 °F 26.6 °F 100% 29.70 in 10.0 mi SW 4.6 mph - N/A   Scattered Clouds
1:35 AM 24.8 °F - 24.8 °F 100% 29.69 in 10.0 mi Calm Calm - N/A   Scattered Clouds
1:55 AM 24.8 °F 20.5 °F 24.8 °F 100% 29.69 in 10.0 mi NNW 3.5 mph - N/A   Scattered Clouds
2:15 AM 23.0 °F 17.0 °F 23.0 °F 100% 29.69 in 10.0 mi SW 4.6 mph - N/A   Mostly Cloudy
2:35 AM 24.8 °F - 24.8 °F 100% 29.69 in 10.0 mi Calm Calm - N/A   Overcast
2:55 AM 24.8 °F 17.9 °F 24.8 °F 100% 29.69 in 10.0 mi NNW 5.8 mph - N/A   Overcast
3:15 AM 24.8 °F 19.1 °F 24.8 °F 100% 29.70 in 0.5 mi NW 4.6 mph - N/A Fog Light Freezing Fog
3:35 AM 24.8 °F 19.1 °F 24.8 °F 100% 29.69 in 10.0 mi NNW 4.6 mph - N/A   Overcast
3:55 AM 21.2 °F - 21.2 °F 100% 29.69 in 10.0 mi Calm Calm - N/A   Mostly Cloudy
4:15 AM 21.2 °F 16.4 °F 21.2 °F 100% 29.69 in 10.0 mi WNW 3.5 mph - N/A   Scattered Clouds
4:35 AM 21.2 °F 12.6 °F 21.2 °F 100% 29.69 in 10.0 mi WNW 6.9 mph - N/A   Scattered Clouds
4:55 AM 21.2 °F 10.1 °F 21.2 °F 100% 29.69 in 10.0 mi WNW 10.4 mph - N/A   Mostly Cloudy
5:15 AM 21.2 °F 12.6 °F 19.4 °F 93% 29.69 in 10.0 mi NW 6.9 mph - N/A   Scattered Clouds
6:35 AM 17.6 °F 5.7 °F 17.6 °F 100% 29.71 in 10.0 mi WNW 10.4 mph - N/A   Clear
6:55 AM 15.8 °F 4.2 °F 15.8 °F 100% 29.71 in 10.0 mi WNW 9.2 mph - N/A   Clear
7:16 AM 15.8 °F 10.2 °F 15.8 °F 100% 29.71 in 10.0 mi WNW 3.5 mph - N/A   Clear
7:35 AM 15.8 °F - 15.8 °F 100% 29.72 in 10.0 mi Calm Calm - N/A   Clear
7:55 AM 17.6 °F 8.2 °F 15.8 °F 93% 29.72 in 10.0 mi WNW 6.9 mph - N/A   Clear
8:15 AM 17.6 °F 8.2 °F 15.8 °F 93% 29.72 in 10.0 mi NW 6.9 mph - N/A   Clear
8:35 AM 19.4 °F 10.4 °F 15.8 °F 86% 29.72 in 10.0 mi NW 6.9 mph - N/A   Clear
8:55 AM 19.4 °F 6.6 °F 15.8 °F 86% 29.72 in 10.0 mi NW 12.7 mph - N/A   Clear
9:17 AM 21.2 °F 8.9 °F 15.8 °F 80% 29.73 in 10.0 mi NW 12.7 mph - N/A   Clear
9:35 AM 21.2 °F 9.5 °F 17.6 °F 86% 29.73 in 10.0 mi WNW 11.5 mph - N/A   Clear
10:36 AM 24.8 °F 14.0 °F 17.6 °F 74% 29.75 in 10.0 mi NW 11.5 mph - N/A   Clear
10:55 AM 26.6 °F 16.2 °F 15.8 °F 64% 29.75 in 10.0 mi NW 11.5 mph - N/A   Clear
11:17 AM 28.4 °F 18.5 °F 15.8 °F 59% 29.76 in 10.0 mi NNW 11.5 mph - N/A   Clear
11:55 AM 28.4 °F 19.1 °F 12.2 °F 51% 29.76 in 10.0 mi NW 10.4 mph - N/A   Clear
12:15 PM 28.4 °F 19.1 °F 12.2 °F 51% 29.76 in 10.0 mi NNW 10.4 mph - N/A   Clear
12:36 PM 28.4 °F 19.7 °F 12.2 °F 51% 29.75 in 10.0 mi NNW 9.2 mph - N/A   Clear
12:55 PM 28.4 °F 19.7 °F 12.2 °F 51% 29.75 in 10.0 mi NNW 9.2 mph - N/A   Clear
1:35 PM 30.2 °F 20.8 °F 15.8 °F 55% 29.75 in 10.0 mi NNW 11.5 mph - N/A   Scattered Clouds
1:55 PM 30.2 °F 21.3 °F 14.0 °F 51% 29.75 in 10.0 mi WNW 10.4 mph 16.1 mph N/A   Scattered Clouds
2:15 PM 30.2 °F 20.8 °F 15.8 °F 55% 29.75 in 10.0 mi NW 11.5 mph - N/A   Scattered Clouds
2:35 PM 30.2 °F 21.3 °F 15.8 °F 55% 29.75 in 10.0 mi NNW 10.4 mph - N/A   Scattered Clouds
2:55 PM 30.2 °F 21.3 °F 15.8 °F 55% 29.75 in 10.0 mi NNW 10.4 mph - N/A   Scattered Clouds
3:15 PM 32.0 °F 23.6 °F 15.8 °F 51% 29.75 in 10.0 mi NNW 10.4 mph - N/A   Scattered Clouds
3:35 PM 32.0 °F 22.1 °F 15.8 °F 51% 29.75 in 10.0 mi NNW 13.8 mph - N/A   Scattered Clouds
3:55 PM 32.0 °F 23.0 °F 15.8 °F 51% 29.75 in 10.0 mi NW 11.5 mph - N/A   Scattered Clouds
4:15 PM 33.8 °F 24.3 °F 15.8 °F 48% 29.75 in 10.0 mi NW 13.8 mph 17.3 mph N/A   Mostly Cloudy
4:37 PM 32.0 °F 22.5 °F 17.6 °F 55% 29.75 in 10.0 mi NNW 12.7 mph 17.3 mph N/A   Mostly Cloudy
4:58 PM 32.0 °F 22.5 °F 15.8 °F 51% 29.76 in 10.0 mi NNW 12.7 mph - N/A   Mostly Cloudy
5:15 PM 32.0 °F 22.1 °F 15.8 °F 51% 29.77 in 10.0 mi NW 13.8 mph - N/A   Mostly Cloudy
5:35 PM 32.0 °F 22.5 °F 15.8 °F 51% 29.77 in 10.0 mi NW 12.7 mph - N/A   Scattered Clouds
5:55 PM 32.0 °F 23.0 °F 15.8 °F 51% 29.77 in 10.0 mi NW 11.5 mph - N/A   Clear
6:15 PM 32.0 °F 23.0 °F 15.8 °F 51% 29.77 in 10.0 mi NW 11.5 mph - N/A   Clear
6:35 PM 30.2 °F 20.2 °F 15.8 °F 55% 29.78 in 10.0 mi NW 12.7 mph - N/A   Clear
6:55 PM 30.2 °F 19.3 °F 17.6 °F 60% 29.79 in 10.0 mi NW 15.0 mph - N/A   Clear
7:15 PM 28.4 °F 19.1 °F 19.4 °F 69% 29.79 in 10.0 mi WNW 10.4 mph - N/A   Clear
7:35 PM 28.4 °F 18.5 °F 19.4 °F 69% 29.80 in 10.0 mi NW 11.5 mph - N/A   Clear
7:55 PM 26.6 °F 19.1 °F 19.4 °F 74% 29.80 in 10.0 mi WNW 6.9 mph - N/A   Clear
8:15 PM 26.6 °F 17.5 °F 19.4 °F 74% 29.81 in 10.0 mi West 9.2 mph - N/A   Clear
8:35 PM 24.8 °F 16.1 °F 19.4 °F 80% 29.82 in 10.0 mi WNW 8.1 mph - N/A   Clear
8:55 PM 24.8 °F 16.1 °F 19.4 °F 80% 29.84 in 10.0 mi WNW 8.1 mph - N/A   Clear
9:15 PM 24.8 °F 16.1 °F 17.6 °F 74% 29.84 in 10.0 mi NW 8.1 mph - N/A   Scattered Clouds
9:35 PM 21.2 °F 11.7 °F 17.6 °F 86% 29.85 in 10.0 mi NW 8.1 mph - N/A   Clear
9:55 PM 21.2 °F 11.7 °F 17.6 °F 86% 29.85 in 10.0 mi NW 8.1 mph - N/A   Clear
10:15 PM 21.2 °F 12.6 °F 15.8 °F 80% 29.85 in 10.0 mi NNW 6.9 mph - N/A   Clear
10:35 PM 21.2 °F 10.1 °F 17.6 °F 86% 29.85 in 10.0 mi NW 10.4 mph - N/A   Clear
10:55 PM 21.2 °F 12.6 °F 17.6 °F 86% 29.85 in 10.0 mi WNW 6.9 mph - N/A   Clear
11:15 PM 19.4 °F 7.9 °F 15.8 °F 86% 29.86 in 10.0 mi NW 10.4 mph - N/A   Clear
11:35 PM 19.4 °F 6.6 °F 15.8 °F 86% 29.86 in 10.0 mi NW 12.7 mph - N/A   Clear
11:55 PM 19.4 °F 7.9 °F 15.8 °F 86% 29.87 in 10.0 mi NW 10.4 mph - N/A   Clear